Regional Weather Roundup
Issued by NWS

Home | Current Version | Previous Version | Text Only | Print | Product List | Glossary On
Versions: 1 2 3 4 5 6 7 8 9 10 11 12 13 14 15 16 17 18 19 20 21 22 23 24 25 26 27 28 29 30 31 32 33 34 35 36 37 38 39 40 41 42 43 44 45 46 47 48 49 50
000
ASUS46 KPQR 170910
RWROR

OREGON REGIONAL WEATHER ROUNDUP
NATIONAL WEATHER SERVICE PORTLAND OR
200 AM PDT WED SEP 17 2014

NOTE: "FAIR" INDICATES FEW OR NO CLOUDS BELOW 12,000 FEET WITH
NO SIGNIFICANT WEATHER AND/OR OBSTRUCTIONS TO VISIBILITY.

ORZ001>013-171000-
NORTHWEST OREGON


CITY           SKY/WX    TMP DP  RH WIND       PRES   REMARKS
ASTORIA        CLOUDY    57  55  93 SE5       29.82F
NEWPORT        MOCLDY    57  55  94 E5        29.84F
PORTLAND       CLOUDY    63  56  78 NW3       29.82F
VANCOUVER WA   CLOUDY    62  54  74 CALM      29.81F
SCAPPOOSE      CLOUDY    59  56  89 CALM      29.82F
HILLSBORO      CLOUDY    59  54  83 CALM      29.82F
AURORA         PTCLDY    63  54  72 NE6       29.82F
MCMINNVILLE    MOCLDY    57  53  86 W3        29.82F
SALEM          PTCLDY    63  54  72 N5        29.80F
CORVALLIS      MOCLDY    61  52  72 NW7       29.82S
EUGENE         CLOUDY    61  52  72 CALM      29.80F
$$

ORZ021-028-171000-
SOUTHWEST OREGON


CITY           SKY/WX    TMP DP  RH WIND       PRES   REMARKS
NORTH BEND     CLOUDY    57  57 100 NE3       29.80F
BROOKINGS      PTSUNNY   57  54  90 CALM      29.80S
ROSEBURG       CLOUDY    65  53  65 CALM      29.79F
SEXTON SUMMIT  CLOUDY    65  37  35 CALM      29.88F
MEDFORD        CLOUDY    67  45  45 CALM      29.78F HAZE
$$

ORZ009-041-171000-
COLUMBIA GORGE


CITY           SKY/WX    TMP DP  RH WIND       PRES   REMARKS
TROUTDALE      MOCLDY    59  53  80 E5        29.80F
THE DALLES     CLOUDY    69  50  50 NW3       29.78F
$$

ORZ029>031-042>050-061>064-171000-
EASTERN OREGON


CITY           SKY/WX    TMP DP  RH WIND       PRES   REMARKS
REDMOND        CLOUDY    58  37  45 CALM      29.88F
BEND           PTSUNNY   57  39  51 CALM      29.91F
KLAMATH FALLS  CLOUDY    53  34  48 N3        29.92S
LAKEVIEW       CLOUDY    48  28  46 N7        29.99F
HERMISTON      PTCLDY    60  44  55 CALM      29.78S
PENDLETON      PTCLDY    62  36  37 SE8       29.82S
JOHN DAY       PTSUNNY   64  33  31 CALM      29.92S
MEACHAM        PTCLDY    43  33  68 CALM      29.94S
LA GRANDE      PTCLDY    55  30  38 CALM      29.87S
BAKER CITY     PTCLDY    49  39  68 CALM      29.90S
BURNS          MOCLDY    49  27  42 N5        29.94S
ROME             N/A     61  30  31 S6        29.92S
ONTARIO        MOCLDY    63  49  60 S5        29.81R
$$



USA.gov is the U.S. government's official web portal to all federal, state and local government web resources and services.